[[{"header":{"parameterUnit":"m.s-1","parameterCategory":1,"la1":30.2991,"la2":30.254,"lo1":-89.0895,"lo2":-89.0444,"dy":0.0017,"dx":0.0017,"nx":28,"ny":28,"refTime":"2025-03-22T03:00:00:Z","depth":0,"parameterNumber":2,"parameterNumberName":"U-component_of_WINDS"},"data":[0,0,0,0,0,0,0,0,0,0,0,0,0,0,0,0,0,0,0,0,0,0,0,0,0,0,0,0,0,0,0,0,0,0,0,0,0,0,0,0,0,0,0,0,0,0,0,0,0,0,0,0,0,0,0,0,0,0,0.5733,0.5735,0,0.5894,0.5896,0.5897,0.5958,0.5957,0.5957,0.5956,0.6124,0.6129,0.6134,0,0,0,0,0,0,0,0,0,0,0,0,0,0.5479,0.5483,0.5733,0.5735,0.5737,0.5893,0.5896,0.5898,0.5958,0.5957,0.5957,0.5956,0.6122,0.6128,0.6134,0,0,0,0,0,0,0,0,0,0,0,0,0,0.5609,0.5485,0.5732,0.5786,0.5792,0.5893,0.5896,0.5898,0.5958,0.5957,0.5957,0.5956,0.612,0.6128,0.6135,0.6196,0,0,0.6158,0.6161,0,0,0,0,0,0,0,0,0.5602,0.5619,0.5776,0.5782,0.5789,0.5905,0.5868,0.5998,0.5958,0.5895,0.5956,0.5955,0.6052,0.6065,0.6097,0.6204,0.6211,0.6158,0.6163,0.6166,0.6168,0,0,0,0,0,0,0,0.5593,0.5612,0.5797,0.5778,0.5786,0.5802,0.582,0.5893,0.5976,0.5901,0.5905,0.5923,0.6056,0.6089,0.6101,0.6213,0.6158,0.6165,0.6169,0.6172,0.6376,0.6377,0,0,0,0,0,0,0.5575,0.5604,0.5791,0.5801,0.5692,0.5807,0.5827,0.5869,0.5975,0.5991,0.5924,0.5926,0.6077,0.6092,0.6107,0.6184,0.6166,0.6173,0.6177,0.6375,0.6376,0.6377,0,0,0,0,0,0,0.5569,0.5591,0.5785,0.5704,0.573,0.5812,0.5859,0.5872,0.5906,0.5993,0.6008,0.5943,0.6077,0.6097,0.6173,0.6191,0.6176,0.6183,0.6374,0.6376,0.6377,0.634,0,0,0,0,0,0,0.5562,0.5588,0.5612,0.5704,0.5734,0.5847,0.586,0.5876,0.5919,0.5922,0.6015,0.603,0.6078,0.6161,0.618,0.6201,0.6189,0.6373,0.6375,0.6376,0.6339,0.634,0.634,0,0,0,0,0,0.5552,0.5596,0.5613,0.5635,0.5765,0.5848,0.5865,0.5919,0.592,0.5944,0.6,0.6027,0.6186,0.6168,0.619,0.6214,0.6372,0.6374,0.6376,0.6339,0.634,0.634,0,0,0,0,0,0,0.5506,0.5609,0.5629,0.5704,0.5767,0.5858,0.5891,0.5918,0.5982,0.5983,0.6049,0.6069,0.6139,0.6184,0.6163,0.6277,0.6281,0.6287,0.6245,0.6246,0.6246,0.6234,0.6195,0,0,0,0,0,0.5504,0.5562,0.565,0.5707,0.5737,0.5808,0.5847,0.5882,0.595,0.5977,0.6038,0.6104,0.6168,0.621,0.6274,0.6346,0.6367,0.6373,0.6373,0.6372,0.6377,0.6417,0.6421,0.6385,0.6385,0.6385,0,0,0.5502,0.5565,0.5598,0.5699,0.5752,0.5811,0.5831,0.5892,0.5936,0.5987,0.6062,0.6108,0.6186,0.6259,0.6295,0.6299,0.6392,0.6375,0.6374,0.638,0.642,0.6423,0.6426,0.6386,0.6386,0.6386,0,0,0.5527,0.5581,0.5634,0.5686,0.5765,0.5812,0.5824,0.5911,0.5944,0.6019,0.6058,0.6112,0.6222,0.6275,0.6316,0.6359,0.6386,0.6378,0.6379,0.6417,0.642,0.6423,0.6437,0.6442,0.6383,0.6383,0.6383,0,0.5514,0.5603,0.5659,0.5718,0.5761,0.5808,0.5862,0.591,0.6006,0.6035,0.6038,0.6175,0.6231,0.6317,0.6327,0.6359,0.6375,0.6368,0.6415,0.6418,0.6422,0.6436,0.6442,0.6381,0.6381,0.6382,0.6382,0,0.5583,0.5644,0.5678,0.5768,0.5815,0.5871,0.5935,0.5976,0.6007,0.6053,0.6129,0.6197,0.6275,0.6298,0.633,0.6388,0.6388,0.6402,0.6407,0.6422,0.6437,0.6443,0.6379,0.638,0.638,0.638,0,0,0.5585,0.5703,0.5715,0.5755,0.5845,0.5893,0.5951,0.6027,0.606,0.6124,0.6174,0.6265,0.6278,0.6325,0.6363,0.6396,0.6424,0.6406,0.6409,0.6407,0.6492,0.648,0.6486,0.6442,0.6444,0.6445,0.6485,0,0.5622,0.5727,0.5777,0.5861,0.5917,0.5962,0.6012,0.6072,0.6117,0.6171,0.6221,0.6284,0.6296,0.6324,0.636,0.6413,0.6442,0.6411,0.649,0.6492,0.6469,0.6494,0.6483,0.6518,0.6491,0.6492,0.6493,0,0.5679,0.5741,0.583,0.5911,0.5937,0.5981,0.6053,0.6105,0.6174,0.6203,0.6254,0.6291,0.6353,0.6353,0.6439,0.6417,0.6452,0.6483,0.6486,0.6496,0.6494,0.6504,0.653,0.6535,0.6503,0.6502,0.6501,0,0.5671,0.5777,0.5843,0.5877,0.5973,0.6003,0.6045,0.6113,0.6154,0.6217,0.6244,0.6314,0.6352,0.6406,0.646,0.6454,0.6541,0.6545,0.6567,0.6566,0.6584,0.6582,0.6616,0.6607,0.6606,0.6606,0.6606,0,0.5706,0.5759,0.584,0.5881,0.594,0.5998,0.6055,0.61,0.616,0.621,0.6253,0.6299,0.6368,0.6423,0.6465,0.653,0.6547,0.6573,0.6584,0.6569,0.6566,0.6594,0.6593,0.6608,0.6607,0.6607,0.6607,0,0.5707,0.5764,0.5839,0.5924,0.5946,0.5986,0.6058,0.61,0.6145,0.6208,0.6226,0.6298,0.6364,0.6423,0.6512,0.654,0.6606,0.662,0.6583,0.6589,0.6607,0.6604,0.666,0.667,0.6653,0.6653,0.6653,0,0.5726,0.5767,0.5856,0.5892,0.5932,0.599,0.6032,0.609,0.6131,0.6212,0.6243,0.6312,0.6371,0.6475,0.6535,0.6603,0.6618,0.6633,0.6629,0.6612,0.6618,0.6615,0.6619,0.6632,0.6632,0.6632,0.6632,0,0.5754,0.578,0.5838,0.5906,0.5954,0.601,0.6068,0.6095,0.6163,0.6208,0.6276,0.6321,0.641,0.6478,0.6552,0.6596,0.6625,0.6633,0.6641,0.6627,0.6604,0.6616,0.6582,0.6631,0.6632,0.6632,0.6632,0.6632,0.5765,0.5803,0.587,0.5933,0.5982,0.6034,0.6077,0.6127,0.6184,0.626,0.6291,0.6359,0.6426,0.6528,0.6571,0.6626,0.6631,0.6644,0.6647,0.6649,0.6646,0.6594,0.6639,0.664,0.664,0.664,0.664,0,0.5794,0.5839,0.5896,0.5975,0.6024,0.6046,0.6111,0.6151,0.621,0.627,0.6326,0.6403,0.6468,0.6533,0.6602,0.6633,0.6648,0.6649,0.6648,0.6657,0.6638,0.6623,0.6636,0.6636,0.6636,0.6636,0.6636,0.6636,0.5815,0.588,0.5913,0.6002,0.6047,0.6114,0.6149,0.6197,0.6245,0.6329,0.6383,0.6424,0.6485,0.6559,0.662,0.6637,0.666,0.6658,0.6678,0.6659,0.6659,0.6658,0.6645,0.6662,0.6662,0.6693,0.6694,0.6694]},{"header":{"parameterUnit":"m.s-1","parameterCategory":1,"la1":30.2991,"la2":30.254,"lo1":-89.0895,"lo2":-89.0444,"dy":0.0017,"dx":0.0017,"nx":28,"ny":28,"refTime":"2025-03-22T03:00:00:Z","depth":0,"parameterNumber":3,"parameterNumberName":"V-component_of_WINDS"},"data":[0,0,0,0,0,0,0,0,0,0,0,0,0,0,0,0,0,0,0,0,0,0,0,0,0,0,0,0,0,0,0,0,0,0,0,0,0,0,0,0,0,0,0,0,0,0,0,0,0,0,0,0,0,0,0,0,0,0,4.1832,4.1831,0,4.1787,4.1787,4.1786,4.1777,4.1778,4.1778,4.1778,4.1726,4.1724,4.1723,0,0,0,0,0,0,0,0,0,0,0,0,0,4.1903,4.1902,4.1832,4.1831,4.1831,4.1787,4.1787,4.1786,4.1777,4.1778,4.1778,4.1778,4.1727,4.1725,4.1722,0,0,0,0,0,0,0,0,0,0,0,0,0,4.1866,4.1901,4.1832,4.1821,4.182,4.1787,4.1787,4.1786,4.1777,4.1778,4.1778,4.1779,4.1727,4.1725,4.1722,4.1695,0,0,4.1714,4.1713,0,0,0,0,0,0,0,0,4.1868,4.1864,4.1823,4.1822,4.182,4.1789,4.1793,4.1755,4.1777,4.1793,4.1778,4.1779,4.1746,4.1742,4.1732,4.1693,4.1691,4.1714,4.1712,4.1711,4.1711,0,0,0,0,0,0,0,4.1871,4.1866,4.1814,4.1823,4.1821,4.1816,4.1812,4.1785,4.1767,4.1792,4.1791,4.1786,4.1745,4.1735,4.1731,4.169,4.1714,4.1712,4.171,4.1709,4.1625,4.1624,0,0,0,0,0,0,4.1876,4.1868,4.1815,4.1813,4.1846,4.1815,4.181,4.1798,4.1767,4.1763,4.1786,4.1786,4.1739,4.1734,4.1729,4.1694,4.1711,4.1709,4.1707,4.1625,4.1624,4.1624,0,0,0,0,0,0,4.1878,4.1872,4.1817,4.184,4.1833,4.1813,4.18,4.1797,4.1786,4.1763,4.1759,4.1779,4.1739,4.1733,4.1704,4.1693,4.1708,4.1705,4.1626,4.1625,4.1624,4.1626,0,0,0,0,0,0,4.188,4.1872,4.1864,4.184,4.1832,4.1795,4.1799,4.1796,4.1783,4.1783,4.1755,4.1751,4.1739,4.1708,4.1701,4.1689,4.1703,4.1627,4.1626,4.1624,4.1627,4.1625,4.1624,0,0,0,0,0,4.1883,4.1865,4.1863,4.1857,4.1821,4.1795,4.1789,4.1778,4.1782,4.1772,4.1756,4.1752,4.1695,4.1705,4.1698,4.1685,4.1628,4.1626,4.1624,4.1628,4.1626,4.1624,0,0,0,0,0,0,4.1885,4.1862,4.186,4.1834,4.1817,4.1793,4.178,4.1776,4.1756,4.1756,4.174,4.1734,4.1706,4.1692,4.1704,4.1656,4.1661,4.1658,4.1666,4.1664,4.1662,4.1666,4.1701,0,0,0,0,0,4.1884,4.1867,4.1846,4.1825,4.1817,4.18,4.1788,4.1781,4.1761,4.1753,4.1735,4.1715,4.1692,4.1677,4.1655,4.1625,4.1618,4.1612,4.1611,4.161,4.1607,4.1588,4.1585,4.1619,4.1619,4.1619,0,0,4.1879,4.1863,4.1853,4.1825,4.1811,4.1791,4.1794,4.1773,4.1758,4.1749,4.1721,4.1708,4.1683,4.1654,4.1639,4.1641,4.1596,4.1608,4.1607,4.1604,4.1586,4.1583,4.158,4.1617,4.1618,4.1618,0,0,4.186,4.1847,4.1829,4.1814,4.1793,4.1782,4.1778,4.1755,4.1746,4.1718,4.1711,4.1691,4.1653,4.1636,4.1622,4.1596,4.159,4.1589,4.158,4.1562,4.156,4.1557,4.1546,4.1543,4.1586,4.1586,4.1586,0,4.1856,4.1828,4.1819,4.1799,4.1786,4.1779,4.1758,4.1744,4.1716,4.1706,4.1709,4.1661,4.1644,4.1609,4.1603,4.1592,4.1585,4.1592,4.1561,4.1559,4.1556,4.1546,4.1542,4.1586,4.1586,4.1586,4.1586,0,4.1824,4.1805,4.1791,4.1767,4.1752,4.1732,4.1717,4.1703,4.1697,4.1685,4.1655,4.1635,4.1608,4.16,4.1592,4.1563,4.1565,4.1565,4.157,4.1553,4.1543,4.1539,4.1586,4.1586,4.1586,4.1586,0,0,4.1805,4.1776,4.1771,4.1759,4.1735,4.1719,4.1697,4.1673,4.1661,4.1641,4.1621,4.1589,4.1589,4.1573,4.1563,4.1548,4.1527,4.1549,4.1548,4.1545,4.1492,4.1491,4.1487,4.1524,4.1523,4.1522,4.1493,0,4.1782,4.1747,4.1737,4.1705,4.1686,4.1679,4.166,4.1642,4.163,4.161,4.1596,4.1573,4.1575,4.1565,4.155,4.1533,4.1516,4.1535,4.1502,4.1501,4.1508,4.1482,4.1482,4.1456,4.1489,4.1489,4.1488,0,4.1751,4.1733,4.17,4.1678,4.167,4.1653,4.163,4.1612,4.159,4.1582,4.1565,4.1557,4.1532,4.1539,4.1502,4.1515,4.1501,4.1491,4.149,4.1485,4.1493,4.1476,4.1447,4.1443,4.1482,4.1483,4.1483,0,4.174,4.1707,4.1683,4.1673,4.1647,4.1635,4.1623,4.1602,4.1588,4.1567,4.1557,4.1532,4.1518,4.1498,4.1483,4.1489,4.1447,4.1453,4.1438,4.1438,4.1428,4.1429,4.1396,4.1421,4.1421,4.1421,4.1421,0,4.1715,4.1695,4.1677,4.1662,4.1639,4.1627,4.1603,4.159,4.1572,4.1552,4.1544,4.1526,4.1507,4.1485,4.1473,4.1444,4.1438,4.1429,4.1425,4.1429,4.143,4.1419,4.142,4.142,4.142,4.1421,4.1421,0,4.1698,4.1686,4.1659,4.1637,4.163,4.1614,4.1593,4.1577,4.1565,4.1541,4.1534,4.1514,4.1488,4.1471,4.1437,4.1428,4.1396,4.1394,4.1404,4.1402,4.1388,4.1389,4.1345,4.1338,4.137,4.1369,4.1369,0,4.1682,4.1667,4.1644,4.1631,4.162,4.16,4.1585,4.1572,4.1557,4.1532,4.1518,4.1492,4.147,4.1428,4.1409,4.1383,4.1379,4.1366,4.1375,4.1378,4.1377,4.1378,4.1375,4.1364,4.1363,4.1363,4.1363,0,4.1656,4.1651,4.1632,4.1611,4.1595,4.1577,4.1558,4.1548,4.1531,4.1515,4.1489,4.1473,4.1439,4.1412,4.1384,4.1369,4.1362,4.1361,4.1355,4.1358,4.1364,4.136,4.1399,4.1361,4.1361,4.1362,4.1362,4.1362,4.1638,4.1624,4.1605,4.1584,4.1569,4.1553,4.1536,4.1523,4.1502,4.1475,4.1468,4.144,4.1417,4.1379,4.1364,4.134,4.1342,4.1335,4.1333,4.1331,4.133,4.1369,4.1335,4.1335,4.1335,4.1335,4.1335,0,4.161,4.1598,4.1579,4.1555,4.1538,4.1536,4.1515,4.15,4.1477,4.1457,4.1437,4.1406,4.138,4.1359,4.1332,4.1317,4.1313,4.131,4.131,4.1306,4.1331,4.1338,4.1314,4.1314,4.1314,4.1314,4.1314,4.1314,4.1594,4.1569,4.1562,4.1528,4.1516,4.1491,4.1479,4.1462,4.1447,4.1414,4.1393,4.1381,4.1359,4.133,4.1305,4.13,4.1289,4.1286,4.128,4.1303,4.1305,4.1307,4.1313,4.1285,4.1284,4.1257,4.1257,4.1256]}]]